Fort Wayne, IN

8:18 PM EDT on June 26, 2017 (GMT -0400)
Fort Wayne International

Weather History for KFWA - October, 2013

Change the Weather History Date:

Monday, October 7, 2013

  Actual Average Record
Temperature  
Mean Temperature 52 °F 56 °F  
Max Temperature 61 °F 67 °F 89 °F (1963)
Min Temperature 42 °F 44 °F 26 °F (1964)
Degree Days  
Heating Degree Days 13 10  
Month to date heating degree days 22 63  
Since 1 July heating degree days 140 179  
Cooling Degree Days 0 1  
Month to date cooling degree days 28 7  
Year to date cooling degree days 855 807  
Growing Degree Days 2 (Base 50)    
Moisture  
Dew Point 42 °F    
Average Humidity 74    
Maximum Humidity 90    
Minimum Humidity 42    
Precipitation  
Precipitation T in 0.09 in 1.64 in (1922)
Month to date precipitation 1.26 0.67  
Year to date precipitation 35.49 30.31  
Snow  
Snow 0.00 in 0.00 in - ()
Month to date snowfall 0.0 0.0  
Since 1 July snowfall 0.0 0.0  
Since 1 September snowfall 0.0 0.0  
Snow Depth 0.00 in    
Sea Level Pressure  
Sea Level Pressure 29.95 in    
Wind  
Wind Speed 8 mph (WSW)    
Max Wind Speed 20 mph    
Max Gust Speed 28 mph    
Visibility 10 miles    
Events Rain    
T = Trace of Precipitation, MM = Missing Value Source: NWS Daily Summary

Daily Weather History Graph

Daily Weather History Graph

Search for Another Location

Airport or City:

Trip Planner

Search our weather history database for the weather conditions in past years. The results will help you decide how hot, cold, wet, or windy it might be!

Date:

Astronomy

Oct. 07, 2013 Rise Set
Actual Time 7:43 AM EDT 7:12 PM EDT
Civil Twilight 7:16 AM EDT 7:39 PM EDT
Nautical Twilight 6:44 AM EDT 8:11 PM EDT
Astronomical Twilight 6:12 AM EDT 8:43 PM EDT
Moon 10:34 AM EDT (10/7) 8:55 PM EDT (10/7)
Length of Visible Light 12h 23m
Length of Day
11h 28m
Waxing Crescent, 8% of the Moon is Illuminated
Oct 7
Waxing Crescent
Oct 11
First Quarter
Oct 18
Full
Oct 26
Last Quarter
Nov 3
New

Hourly Weather History & Observations

Time (EDT) Temp. Windchill Dew Point Humidity Pressure Visibility Wind Dir Wind Speed Gust Speed Precip Events Conditions
12:54 AM 46.0 °F 43.1 °F 41.0 °F 83% 29.81 in 10.0 mi SW 5.8 mph - N/A   Partly Cloudy
1:54 AM 45.0 °F 41.2 °F 39.9 °F 82% 29.80 in 10.0 mi SW 6.9 mph - N/A   Clear
2:54 AM 43.0 °F 38.2 °F 39.9 °F 89% 29.82 in 10.0 mi SW 8.1 mph - N/A   Clear
3:54 AM 43.0 °F 40.3 °F 39.9 °F 89% 29.80 in 10.0 mi SW 4.6 mph - N/A   Clear
4:54 AM 44.1 °F 40.1 °F 41.0 °F 89% 29.81 in 10.0 mi SW 6.9 mph - N/A   Mostly Cloudy
5:54 AM 46.0 °F 42.5 °F 42.1 °F 86% 29.83 in 10.0 mi WSW 6.9 mph - N/A   Overcast
6:54 AM 46.0 °F 43.1 °F 43.0 °F 89% 29.83 in 10.0 mi SW 5.8 mph - 0.00 in Rain Light Rain
7:54 AM 46.0 °F 41.9 °F 42.1 °F 86% 29.86 in 10.0 mi West 8.1 mph - 0.00 in   Mostly Cloudy
8:54 AM 46.9 °F - 42.1 °F 83% 29.87 in 10.0 mi WSW 8.1 mph - N/A   Scattered Clouds
9:01 AM 46.4 °F 41.5 °F 42.8 °F 87% 29.87 in 10.0 mi WSW 10.4 mph - N/A   Mostly Cloudy
9:18 AM 48.2 °F - 42.8 °F 82% 29.88 in 10.0 mi West 10.4 mph - N/A   Mostly Cloudy
9:54 AM 48.9 °F - 41.0 °F 74% 29.90 in 10.0 mi WSW 12.7 mph 19.6 mph N/A   Scattered Clouds
10:54 AM 51.1 °F - 41.0 °F 68% 29.92 in 10.0 mi West 15.0 mph 21.9 mph N/A   Scattered Clouds
11:54 AM 55.9 °F - 42.1 °F 60% 29.93 in 10.0 mi WSW 12.7 mph 21.9 mph N/A   Scattered Clouds
12:54 PM 59.0 °F - 42.1 °F 53% 29.94 in 10.0 mi West 11.5 mph 25.3 mph N/A   Scattered Clouds
1:54 PM 59.0 °F - 42.1 °F 53% 29.95 in 10.0 mi West 17.3 mph 25.3 mph N/A   Mostly Cloudy
2:54 PM 57.0 °F - 44.1 °F 62% 29.97 in 10.0 mi West 15.0 mph 27.6 mph N/A   Mostly Cloudy
3:39 PM 55.4 °F - 46.4 °F 72% 29.99 in 10.0 mi West 13.8 mph 23.0 mph 0.00 in   Overcast
3:54 PM 55.9 °F - 46.0 °F 69% 30.00 in 10.0 mi WNW 11.5 mph 24.2 mph 0.00 in   Mostly Cloudy
4:22 PM 59.0 °F - 46.4 °F 63% 30.00 in 10.0 mi West 15.0 mph 19.6 mph N/A   Mostly Cloudy
4:54 PM 60.1 °F - 44.1 °F 55% 30.01 in 10.0 mi West 11.5 mph 19.6 mph N/A   Scattered Clouds
5:54 PM 60.1 °F - 43.0 °F 53% 30.02 in 10.0 mi WNW 4.6 mph - N/A   Scattered Clouds
6:54 PM 57.0 °F - 43.0 °F 59% 30.04 in 10.0 mi West 5.8 mph - N/A   Partly Cloudy
7:54 PM 50.0 °F - 44.1 °F 80% 30.08 in 10.0 mi SSW 5.8 mph - N/A   Partly Cloudy
8:54 PM 50.0 °F - 43.0 °F 77% 30.10 in 10.0 mi West 3.5 mph - N/A   Partly Cloudy
9:54 PM 46.0 °F 44.8 °F 43.0 °F 89% 30.13 in 10.0 mi SSW 3.5 mph - N/A   Partly Cloudy
10:54 PM 45.0 °F 42.6 °F 42.1 °F 90% 30.14 in 10.0 mi South 4.6 mph - N/A   Partly Cloudy
11:54 PM 46.0 °F 44.8 °F 42.1 °F 86% 30.16 in 10.0 mi South 3.5 mph - N/A   Clear